N7WSS Weather Reports


time (UTC)temp
C
wind
direction
speed
KPH
gust
KPH
rain 1hr
cm
rain 24hr
cm
rain mn
cm
humidity
%
barometer
mb
20260506013806 20 33 4.8 16.1 0.00 0.53 0.53 33 1009.0
20260506013303 20 138 3.2 14.5 0.00 0.53 0.53 33 1009.0
20260506012800 21 63 3.2 9.7 0.00 0.53 0.53 34 1008.9
20260506012256 21 141 4.8 9.7 0.00 0.53 0.53 33 1008.9
20260506011754 21 55 4.8 14.5 0.00 0.53 0.53 34 1008.8
20260506011250 21 72 6.4 16.1 0.00 0.53 0.53 35 1008.9
20260506010748 21 84 6.4 16.1 0.00 0.53 0.53 34 1008.7
20260506010245 21 118 3.2 14.5 0.00 0.53 0.53 34 1008.7
20260506005743 21 85 3.2 11.3 0.00 0.53 0.53 34 1008.7
20260506005239 21 64 4.8 14.5 0.00 0.53 0.53 34 1008.5
20260506004735 21 127 6.4 14.5 0.00 0.53 0.53 33 1008.5
20260506004233 21 96 6.4 16.1 0.00 0.53 0.53 33 1008.4
20260506003729 22 120 6.4 16.1 0.00 0.53 0.53 32 1008.5
20260506003225 22 76 3.2 6.4 0.00 0.53 0.53 30 1008.5
20260506002721 22 101 1.6 11.3 0.00 0.53 0.53 30 1008.3
20260506002218 22 91 8.0 11.3 0.00 0.53 0.53 30 1008.4
20260506001713 23 100 8.0 12.9 0.00 0.53 0.53 29 1008.3
20260506001211 22 78 9.7 17.7 0.00 0.53 0.53 29 1008.2
20260506000708 23 63 9.7 14.5 0.00 0.53 0.53 28 1008.4
20260506000206 23 72 9.7 16.1 0.00 0.53 0.53 29 1008.3
20260505235703 23 109 4.8 16.1 0.00 0.53 0.53 29 1008.4
20260505235201 23 115 3.2 17.7 0.00 0.53 0.53 29 1008.2
20260505234657 23 134 3.2 16.1 0.00 0.53 0.53 28 1008.3
20260505234154 23 46 4.8 14.5 0.00 0.53 0.53 28 1008.1
20260505233651 23 83 11.3 16.1 0.00 0.53 0.53 27 1008.2
20260505233149 23 111 4.8 14.5 0.00 0.53 0.53 28 1008.2
20260505232646 23 91 3.2 11.3 0.00 0.53 0.53 26 1008.1
20260505232144 23 152 8.0 14.5 0.00 0.53 0.53 26 1008.2
20260505231640 23 70 8.0 20.9 0.00 0.53 0.53 26 1008.3
20260505231139 23 14 11.3 16.1 0.00 0.53 0.53 26 1008.2
20260505230637 23 95 8.0 12.9 0.00 0.53 0.53 28 1008.0
20260505230132 23 106 8.0 20.9 0.00 0.53 0.53 29 1008.0
20260505225629 23 338 6.4 16.1 0.00 0.53 0.53 30 1008.2
20260505225125 23 118 6.4 16.1 0.00 0.53 0.53 31 1008.2
20260505224622 23 90 6.4 11.3 0.00 0.53 0.53 32 1008.3
20260505224120 24 108 8.0 16.1 0.00 0.53 0.53 31 1008.1
20260505223617 23 104 6.4 11.3 0.00 0.53 0.53 32 1008.2
20260505223113 23 128 6.4 25.7 0.00 0.53 0.53 32 1008.3
20260505222609 23 63 6.4 14.5 0.00 0.53 0.53 33 1008.5
20260505222106 23 1 6.4 16.1 0.00 0.53 0.53 32 1008.4
20260505221603 24 110 9.7 14.5 0.00 0.53 0.53 31 1008.4
20260505221059 24 47 12.9 22.5 0.00 0.53 0.53 31 1008.4
20260505220556 23 349 17.7 25.7 0.00 0.53 0.53 34 1008.4
20260505220054 24 103 1.6 11.3 0.00 0.53 0.53 34 1008.7
20260505215552 24 64 9.7 17.7 0.00 0.53 0.53 34 1008.7
20260505215050 23 77 11.3 24.1 0.00 0.53 0.53 34 1008.8
20260505214547 23 65 12.9 24.1 0.00 0.53 0.53 36 1008.9
20260505214044 23 66 8.0 24.1 0.00 0.53 0.53 35 1008.8
20260505213542 22 77 8.0 12.9 0.00 0.53 0.53 36 1008.7
20260505213038 23 39 8.0 16.1 0.00 0.53 0.53 35 1008.8
20260505212534 23 87 11.3 29.0 0.00 0.53 0.53 36 1008.9
20260505212032 24 93 9.7 16.1 0.00 0.53 0.53 35 1009.0
20260505211529 24 86 14.5 22.5 0.00 0.53 0.53 34 1008.9
20260505211025 24 85 8.0 22.5 0.00 0.53 0.53 35 1009.0
20260505210522 24 149 11.3 20.9 0.00 0.53 0.53 35 1009.0
20260505210020 24 287 4.8 20.9 0.00 0.53 0.53 35 1009.1
20260505205518 23 56 9.7 17.7 0.00 0.53 0.53 33 1009.2
20260505205014 23 54 8.0 12.9 0.00 0.53 0.53 36 1009.2
20260505204512 23 123 9.7 24.1 0.00 0.53 0.53 35 1009.2
20260505204009 23 78 12.9 24.1 0.00 0.53 0.53 37 1009.2
20260505203505 23 215 9.7 14.5 0.00 0.53 0.53 37 1009.3
20260505203002 23 99 6.4 16.1 0.00 0.53 0.53 39 1009.2
20260505202459 23 67 9.7 20.9 0.00 0.53 0.53 38 1009.5
20260505201954 23 36 9.7 14.5 0.00 0.53 0.53 40 1009.4
20260505201452 22 104 11.3 14.5 0.00 0.53 0.53 41 1009.4
20260505200949 22 42 4.8 16.1 0.00 0.53 0.53 42 1009.3
20260505200447 22 57 8.0 12.9 0.00 0.53 0.53 41 1009.5
20260505195942 23 103 4.8 17.7 0.00 0.53 0.53 41 1009.6
20260505195439 22 124 6.4 12.9 0.00 0.53 0.53 39 1009.4
20260505194937 24 82 11.3 16.1 0.00 0.53 0.53 36 1009.5
20260505194434 23 93 9.7 12.9 0.00 0.53 0.53 38 1009.6
20260505193934 23 137 6.4 14.5 0.00 0.53 0.53 38 1009.5
20260505193432 22 265 6.4 17.7 0.00 0.53 0.53 42 1009.6
20260505192930 21 110 1.6 6.4 0.00 0.53 0.53 50 1009.5
20260505192428 22 164 6.4 9.7 0.00 0.53 0.53 47 1009.7
20260505191925 21 112 8.0 12.9 0.00 0.53 0.53 51 1009.7
20260505191424 22 297 1.6 3.2 0.00 0.53 0.53 47 1009.6
20260505190920 21 122 0.0 4.8 0.00 0.53 0.53 53 1010.1
20260505190416 22 74 3.2 6.4 0.00 0.53 0.53 52 1010.1
20260505185911 20 127 1.6 11.3 0.00 0.53 0.53 55 1010.1
20260505185409 21 132 1.6 4.8 0.00 0.53 0.53 55 1010.1
20260505184904 21 113 1.6 3.2 0.00 0.53 0.53 52 1010.2
20260505184401 21 126 0.0 3.2 0.00 0.53 0.53 56 1010.4
20260505183858 20 37 1.6 4.8 0.00 0.53 0.53 53 1010.4
20260505183355 21 96 6.4 9.7 0.00 0.53 0.53 53 1010.3
20260505182852 22 187 3.2 9.7 0.00 0.53 0.53 51 1010.4
20260505182349 21 140 3.2 4.8 0.00 0.53 0.53 52 1010.4
20260505181845 21 37 0.0 4.8 0.00 0.53 0.53 55 1010.5
20260505181343 21 89 3.2 4.8 0.00 0.53 0.53 53 1010.6
20260505180839 20 168 1.6 4.8 0.00 0.53 0.53 54 1010.6
20260505180336 20 87 3.2 4.8 0.00 0.53 0.53 55 1010.9
20260505175832 21 159 3.2 11.3 0.00 0.53 0.53 55 1010.7
20260505175328 21 13 3.2 6.4 0.00 0.53 0.53 55 1010.8
20260505174825 21 82 1.6 4.8 0.00 0.53 0.53 57 1010.8
20260505174323 20 300 0.0 4.8 0.00 0.53 0.53 56 1011.2
20260505173819 19 186 6.4 6.4 0.00 0.53 0.53 59 1010.8
20260505173315 19 125 4.8 6.4 0.00 0.53 0.53 60 1010.8
20260505172813 19 223 1.6 3.2 0.00 0.53 0.53 59 1011.2
20260505172310 20 136 3.2 9.7 0.00 0.53 0.53 59 1011.2
20260505171804 20 147 3.2 6.4 0.00 0.53 0.53 60 1010.9
20260505171301 20 140 0.0 4.8 0.00 0.53 0.53 59 1011.1
20260505170758 19 357 1.6 3.2 0.00 0.53 0.53 59 1011.1
20260505170255 18 266 1.6 3.2 0.00 0.53 0.53 60 1010.9
20260505165755 19 154 6.4 6.4 0.00 0.53 0.53 58 1010.8
20260505165252 18 81 1.6 4.8 0.00 0.53 0.53 64 1010.9
20260505164747 18 148 1.6 1.6 0.00 0.53 0.53 63 1011.1
20260505164245 18 85 4.8 6.4 0.00 0.53 0.53 64 1011.2
20260505163743 18 151 1.6 4.8 0.00 0.53 0.53 64 1011.2
20260505163241 17 125 1.6 4.8 0.00 0.53 0.53 66 1011.2
20260505162739 17 69 0.0 3.2 0.00 0.53 0.53 66 1010.9
20260505162235 17 96 1.6 3.2 0.00 0.53 0.53 68 1011.1
20260505161732 18 107 1.6 3.2 0.00 0.53 0.53 67 1011.2
20260505161230 18 113 0.0 3.2 0.00 0.53 0.53 68 1010.8
20260505160727 17 153 0.0 0.0 0.00 0.53 0.53 66 1010.9
20260505160225 17 107 0.0 1.6 0.00 0.53 0.53 68 1011.1
20260505153203 16 138 1.6 4.8 0.00 0.53 0.53 75 1010.8
20260505152700 16 142 1.6 1.6 0.00 0.53 0.53 78 1010.8
20260505152156 16 161 1.6 3.2 0.00 0.53 0.53 79 1010.9
20260505151651 16 124 0.0 0.0 0.00 0.53 0.53 78 1010.8
20260505151149 16 59 0.0 0.0 0.00 0.53 0.53 81 1010.9
20260505150645 16 58 0.0 0.0 0.00 0.53 0.53 81 1010.9
20260505150142 16 58 0.0 0.0 0.00 0.53 0.53 82 1010.8
20260505140611 15 266 0.0 0.0 0.00 0.53 0.53 82 1010.4
20260505140108 15 272 0.0 0.0 0.00 0.53 0.53 82 1010.4
20260505125024 13 269 3.2 3.2 0.00 0.53 0.53 91 1009.9
20260505124521 13 281 3.2 3.2 0.00 0.53 0.53 91 1010.0
20260505124017 13 273 1.6 3.2 0.00 0.53 0.53 91 1010.0
20260505123514 13 248 1.6 3.2 0.00 0.53 0.53 91 1010.0
20260505123010 13 257 3.2 6.4 0.00 0.53 0.53 90 1009.4
20260505122507 13 302 3.2 6.4 0.00 0.53 0.53 90 1009.5
20260505122004 13 284 3.2 3.2 0.00 0.53 0.53 90 1009.7
20260505121501 13 272 0.0 1.6 0.00 0.53 0.53 90 1009.7
20260505120957 13 265 1.6 3.2 0.00 0.53 0.53 89 1009.6
20260505120453 13 259 0.0 1.6 0.00 0.53 0.53 89 1009.5
20260505115952 13 274 0.0 3.2 0.00 0.53 0.53 89 1009.5
20260505115449 13 250 4.8 6.4 0.00 0.53 0.53 88 1009.1
20260505114947 13 269 3.2 3.2 0.18 0.53 0.53 89 1009.2
20260505114443 13 275 3.2 4.8 0.18 0.53 0.53 90 1009.2
20260505113940 13 276 3.2 6.4 0.00 0.51 0.51 89 1009.0
20260505113436 13 232 3.2 6.4 0.00 0.51 0.51 88 1009.2
20260505112932 13 238 3.2 9.7 0.00 0.51 0.51 87 1009.4
20260505112430 13 261 3.2 4.8 0.00 0.51 0.51 88 1009.9
20260505111926 13 262 4.8 6.4 0.00 0.51 0.51 88 1009.7
20260505111421 13 312 3.2 4.8 0.13 0.51 0.51 89 1009.9
20260505110917 13 255 3.2 4.8 0.13 0.51 0.51 88 1009.5
20260505110414 13 311 1.6 3.2 0.00 0.48 0.48 88 1009.9
20260505101845 13 266 4.8 9.7 0.00 0.46 0.46 92 1010.5
20260505101340 13 240 1.6 11.3 0.00 0.46 0.46 92 1010.6
20260505100836 13 283 4.8 6.4 0.00 0.46 0.46 92 1010.5
20260505100333 13 281 6.4 11.3 0.00 0.46 0.46 92 1010.7
20260505095828 13 274 6.4 9.7 0.00 0.46 0.46 93 1010.6
20260505095326 13 241 4.8 6.4 0.00 0.46 0.46 93 1010.7
20260505094822 13 228 8.0 11.3 0.00 0.46 0.46 93 1010.9
20260505094319 13 264 3.2 12.9 0.13 0.46 0.46 93 1011.1
20260505093814 13 274 3.2 9.7 0.13 0.46 0.46 93 1010.9
20260505093312 13 282 3.2 11.3 0.00 0.43 0.43 93 1011.2
20260505092808 13 278 6.4 6.4 0.18 0.43 0.43 93 1011.6
20260505092307 13 309 1.6 4.8 0.18 0.43 0.43 93 1011.7
20260505091804 13 258 3.2 6.4 0.13 0.41 0.41 93 1011.6
20260505091302 13 197 3.2 6.4 0.13 0.41 0.41 93 1011.8
20260505090800 13 324 3.2 6.4 0.18 0.38 0.38 93 1012.0
20260505090258 13 294 0.0 3.2 0.18 0.38 0.38 93 1012.4
20260505085755 13 201 1.6 4.8 0.18 0.36 0.36 93 1012.6
20260505085253 13 291 1.6 3.2 0.18 0.36 0.36 93 1012.6
20260505084750 13 275 1.6 6.4 0.13 0.33 0.33 92 1012.6
20260505084249 13 278 1.6 3.2 0.13 0.33 0.33 92 1012.9
20260505083745 13 275 0.0 3.2 0.18 0.30 0.30 92 1013.1
20260505083242 13 284 0.0 1.6 0.18 0.30 0.30 92 1013.0
20260505082739 13 268 3.2 3.2 0.13 0.28 0.28 92 1013.1
20260505082236 13 260 0.0 3.2 0.30 0.28 0.28 92 1013.2
20260505081732 13 274 3.2 3.2 0.18 0.25 0.25 92 1013.3
20260505081229 13 255 0.0 1.6 0.13 0.23 0.23 92 1013.3
20260505080726 13 357 0.0 0.0 0.30 0.23 0.23 91 1013.5
20260505080221 13 3 0.0 0.0 0.13 0.18 0.18 91 1013.5
20260505075717 13 20 0.0 0.0 0.13 0.18 0.18 91 1013.8
20260505075215 13 22 0.0 0.0 0.18 0.15 0.15 91 1013.7
20260505074712 13 130 0.0 0.0 0.13 0.13 0.13 91 1013.8
20260505074209 13 150 1.6 1.6 0.30 0.13 0.13 91 1013.8
20260505073707 13 103 0.0 3.2 0.30 0.10 0.10 90 1013.9
20260505073204 13 139 0.0 0.0 0.30 0.08 0.08 91 1013.7
20260505072700 13 79 0.0 0.0 0.18 0.05 0.05 91 1013.7
20260505072156 13 78 0.0 0.0 0.00 0.03 0.03 90 1013.7
20260505071652 13 72 0.0 0.0 0.18 0.03 0.03 90 1013.7
20260505071150 13 74 0.0 0.0 0.00 0.00 0.00 89 1013.7
20260505070647 13 22 0.0 0.0 0.13 0.00 0.00 89 1013.5
20260505070143 14 142 0.0 1.6 0.13 0.00 0.00 89 1013.3
20260505065639 14 143 0.0 0.0 0.00 0.08 0.08 88 1013.5
20260505065136 14 106 0.0 0.0 0.18 0.08 0.08 87 1013.5
20260505064633 14 101 0.0 1.6 0.18 0.08 0.08 86 1013.2
20260505064131 14 132 0.0 1.6 0.00 0.05 0.05 85 1012.9
20260505063628 14 182 3.2 4.8 0.00 0.05 0.05 84 1013.1
20260505063124 14 130 3.2 4.8 0.00 0.05 0.05 83 1013.0
20260505062621 14 147 1.6 3.2 0.13 0.05 0.05 85 1013.1
20260505062118 14 89 0.0 3.2 0.13 0.05 0.05 83 1013.2
20260505061615 14 94 0.0 3.2 0.18 0.03 0.03 83 1013.2
20260505061113 14 134 1.6 3.2 0.18 0.03 0.03 84 1013.2
20260505060610 15 117 0.0 0.0 0.00 0.00 0.00 83 1013.6
20260505060107 14 117 0.0 0.0 0.00 0.00 0.00 80 1013.1
20260505055602 15 117 0.0 0.0 0.00 0.00 0.00 81 1013.1
20260505055059 15 117 0.0 0.0 0.00 0.00 0.00 76 1013.0
20260505054556 15 116 0.0 1.6 0.00 0.00 0.00 76 1013.0
20260505054055 15 128 0.0 0.0 0.00 0.00 0.00 75 1012.9
20260505053551 15 138 1.6 3.2 0.00 0.00 0.00 72 1013.0
20260505053048 15 140 0.0 3.2 0.00 0.00 0.00 70 1013.0
20260505052545 16 170 4.8 4.8 0.00 0.00 0.00 66 1013.2
20260505052043 16 116 3.2 4.8 0.00 0.00 0.00 65 1013.3
20260505051539 16 92 1.6 3.2 0.00 0.00 0.00 62 1013.6
20260505051037 16 138 3.2 9.7 0.00 0.00 0.00 62 1013.5
20260505050535 16 170 0.0 3.2 0.00 0.00 0.00 63 1013.3
20260505041503 15 84 0.0 0.0 0.00 0.00 0.00 73 1012.7
20260505041000 15 84 0.0 0.0 0.00 0.00 0.00 72 1013.2
20260505040457 15 83 0.0 0.0 0.00 0.00 0.00 71 1013.0
20260505035954 15 113 0.0 0.0 0.00 0.00 0.00 72 1012.9
20260505035450 15 142 0.0 0.0 0.00 0.00 0.00 69 1012.8
20260505034948 15 136 0.0 0.0 0.00 0.00 0.00 69 1012.5
20260505034444 15 134 0.0 0.0 0.00 0.00 0.00 66 1012.4
20260505033941 15 147 0.0 0.0 0.00 0.00 0.00 67 1012.4
20260505033438 15 126 0.0 0.0 0.00 0.00 0.00 65 1012.6
20260505032936 15 141 0.0 1.6 0.00 0.00 0.00 64 1012.4
20260505032433 15 126 3.2 4.8 0.00 0.00 0.00 64 1012.5
20260505031929 15 136 6.4 9.7 0.00 0.00 0.00 64 1012.7
20260505031427 15 130 1.6 4.8 0.00 0.00 0.00 65 1012.4
20260505030923 16 147 9.7 12.9 0.00 0.00 0.00 62 1012.4
20260505030419 16 134 6.4 12.9 0.00 0.00 0.00 59 1012.6
20260505025915 16 140 11.3 16.1 0.00 0.00 0.00 57 1012.6
20260505025412 16 171 4.8 6.4 0.00 0.00 0.00 58 1012.7
20260505024911 16 155 9.7 14.5 0.00 0.00 0.00 57 1012.5
20260505024408 16 209 6.4 22.5 0.00 0.00 0.00 57 1012.5
20260505023905 17 104 8.0 14.5 0.00 0.00 0.00 54 1012.4
20260505023402 17 118 0.0 6.4 0.00 0.00 0.00 48 1012.5
20260505022859 17 126 3.2 17.7 0.00 0.00 0.00 43 1012.6
20260505022356 17 117 9.7 16.1 0.00 0.00 0.00 49 1012.6
20260505021854 17 119 6.4 30.6 0.00 0.00 0.00 46 1012.4
20260505021350 16 157 14.5 17.7 0.00 0.00 0.00 56 1012.6
20260505020846 16 166 11.3 20.9 0.00 0.00 0.00 57 1012.5
20260505020341 16 113 6.4 20.9 0.00 0.00 0.00 60 1012.5
20260505015838 16 129 9.7 12.9 0.00 0.00 0.00 61 1012.3
20260505015336 17 129 9.7 20.9 0.00 0.00 0.00 57 1012.4
20260505014833 17 181 14.5 17.7 0.00 0.00 0.00 52 1012.6
20260505014330 17 115 4.8 14.5 0.00 0.00 0.00 52 1012.7
20260505013826 18 124 9.7 14.5 0.00 0.00 0.00 52 1012.6